Regional Weather Roundup
Issued by NWS

Home | Current Version | Previous Version | Graphics & Text | Print | Product List | Glossary Off
Versions: 1 2 3 4 5 6 7 8 9 10 11 12 13 14 15 16 17 18 19 20 21 22 23 24 25 26 27 28 29 30 31 32 33 34 35 36 37 38 39 40 41 42 43 44 45 46 47 48 49 50

000
ASUS43 KTOP 271808
RWRKS

WEATHER ROUNDUP FOR KANSAS
NATIONAL WEATHER SERVICE GOODLAND KS
100 PM CDT SAT AUG 27 2016

NOTE:  "FAIR" INDICATES FEW OR NO CLOUDS BELOW 12,000 FEET WITH NO
SIGNIFICANT WEATHER AND/OR OBSTRUCTIONS TO VISIBILITY.

KSZ001>006-013>018-027>032-041>047-271900-
NORTHWEST KANSAS

CITY           SKY/WX    TMP DP  RH WIND       PRES   REMARKS
GOODLAND       MOSUNNY   69  60  73 VRB7      30.08F
6HR MIN TEMP:  55; 6HR MAX TEMP:  69;

HAYS           SUNNY     81  61  50 SE12      30.03S
HILL CITY      SUNNY     79  64  60 SE7       30.04F
6HR MIN TEMP:  55; 6HR MAX TEMP:  79;

RUSSELL        SUNNY     80  64  58 E9        30.03S
6HR MIN TEMP:  59; 6HR MAX TEMP:  80;

$$

KSZ061>065-074>080-084>089-271900-
SOUTHWEST KANSAS

CITY           SKY/WX    TMP DP  RH WIND       PRES   REMARKS
DODGE CITY     SUNNY     82  63  52 SE12      30.05F
6HR MIN TEMP:  60; 6HR MAX TEMP:  82;

ELKHART          N/A     86  60  41 S8          N/A
GARDEN CITY    MOSUNNY   79  62  56 S10G21    30.04F
6HR MIN TEMP:  59; 6HR MAX TEMP:  80;

GREAT BEND     MOSUNNY   81  64  57 SE12      30.03F
LIBERAL        SUNNY     81  63  54 S8        30.05F
PRATT          MOSUNNY   81  64  55 S10       30.04F
6HR MIN TEMP:  62; 6HR MAX TEMP:  81;

$$

KSZ066>073-081>083-090>101-271900-
SOUTHEAST KANSAS

CITY           SKY/WX    TMP DP  RH WIND       PRES   REMARKS
CHANUTE        MOSUNNY   85  74  69 S10       30.03F
6HR MIN TEMP:  71; 6HR MAX TEMP:  85;

COFFEYVILLE    MOSUNNY   89  72  56 S7        30.02F HX  96
6HR MIN TEMP:  70; 6HR MAX TEMP:  89;

HUTCHINSON     MOSUNNY   85  68  56 VRB6      30.03F
6HR MIN TEMP:  63; 6HR MAX TEMP:  85;

MEDICINE LODGE   N/A     83  67  58 VRB3      30.06F
NEWTON         SUNNY     83  70  64 VRB3      30.04F
PARSONS        CLOUDY    89  72  56 VRB6      30.04F HX  96
6HR MIN TEMP:  70; 6HR MAX TEMP:  89;

WICHITA INTL   MOSUNNY   84  71  65 SE8       30.02F
6HR MIN TEMP:  71; 6HR MAX TEMP:  85;

WICHITA JABRA  MOSUNNY   83  73  72 S9        30.03S
6HR MIN TEMP:  67; 6HR MAX TEMP:  83;

WICHITA MCCONL SUNNY     84  72  66 S9        30.03S
WINFIELD       SUNNY     84  73  69 S9        30.04F
6HR MIN TEMP:  68; 6HR MAX TEMP:  84;

$$

KSZ007>012-019>026-033>040-048>060-102>105-271900-
NORTHEAST KANSAS

CITY           SKY/WX    TMP DP  RH WIND       PRES   REMARKS
CONCORDIA      SUNNY     78  66  66 E6        30.04F
6HR MIN TEMP:  64; 6HR MAX TEMP:  78; 6HR PCP: TRACE;

EMPORIA        PTSUNNY   81  70  69 SE6       30.03F
6HR MIN TEMP:  67; 6HR MAX TEMP:  82;

LAWRENCE       MOSUNNY   84  73  69 S8        30.02F
6HR MIN TEMP:  67; 6HR MAX TEMP:  84;

MANHATTAN      PTSUNNY   80  69  69 CALM      30.03S
6HR MIN TEMP:  65; 6HR MAX TEMP:  82;

MARYSVILLE     SUNNY     77  66  69 SE3       30.04F
OLATHE IND     PTSUNNY   83  73  72 S6        30.03F
6HR MIN TEMP:  70; 6HR MAX TEMP:  83;

OLATHE EXE     PTSUNNY   82  73  74 SW9       30.04S
SALINA         CLOUDY    80  67  64 VRB3      30.03F
6HR MIN TEMP:  66; 6HR MAX TEMP:  80; 6HR PCP: TRACE;

TOPEKA BILLARD MOSUNNY   82  71  69 S7        30.02F
6HR MIN TEMP:  67; 6HR MAX TEMP:  82; 6HR PCP:  0.02;

TOPEKA FORBES  MOSUNNY   84  72  67 S6        30.03F
6HR MIN TEMP:  68; 6HR MAX TEMP:  84; 6HR PCP:  0.01;

$$



USA.gov is the U.S. government's official web portal to all federal, state and local government web resources and services.